Simultaneous Nadir Overpasses (SNOs) Predictions

Prediction of SNOs between LANDSAT-8 and NPP Satellite Orbit:

Table of predicted SNOs for the next 14.0 days since TLE Epoch: 1/22/2016
Index Date (LANDSAT-8) Time (LANDSAT-8) Lat,Lon (LANDSAT-8) SZA (LANDSAT-8 ) Date (NPP) Time (NPP) Lat,Lon (NPP) SZA (NPP ) Distance(km) Time Diff (sec)
1 01/22/2016 21:36:01 -70.33, 32.75 90.04 01/22/2016 21:35:06 -70.31, 32.73 90.05 2.45 55
2 01/22/2016 22:25:29 70.17,-159.83 89.82 01/22/2016 22:25:50 70.17,-159.76 89.81 2.81 21
3 01/22/2016 23:15:11 -69.40, 6.73 90.93 01/22/2016 23:16:18 -69.37, 8.76 91.05 79.40 67
4 01/25/2016 13:52:31 -70.26, 148.53 90.73 01/25/2016 13:51:58 -70.28, 148.55 90.70 2.12 33
5 01/25/2016 14:41:58 70.16, -43.98 89.17 01/25/2016 14:42:42 70.15, -43.94 89.15 1.63 44
6 01/28/2016 05:19:26 70.57, 97.22 88.90 01/28/2016 05:18:14 70.65, 96.42 89.02 30.68 72
7 01/28/2016 06:09:00 -70.24, -95.63 91.42 01/28/2016 06:08:50 -70.26, -95.64 91.40 1.95 10
8 01/28/2016 06:58:27 70.13, 71.86 88.47 01/28/2016 06:59:34 70.13, 71.87 88.46 0.37 67
9 01/30/2016 21:35:59 70.31,-147.28 87.95 01/30/2016 21:35:00 70.31,-147.27 87.96 0.47 59
10 01/30/2016 22:25:29 -70.20, 20.20 92.17 01/30/2016 22:25:41 -70.18, 20.25 92.19 2.93 12
11 01/30/2016 23:15:07 69.49,-173.15 87.15 01/30/2016 23:16:15 69.53,-171.46 87.12 65.72 68
12 02/02/2016 13:52:27 70.26, -31.47 87.15 02/02/2016 13:51:50 70.25, -31.39 87.14 3.33 37
13 02/02/2016 14:41:57 -70.16, 136.02 92.96 02/02/2016 14:42:32 -70.17, 136.05 92.96 1.61 35
14 02/05/2016 05:19:19 -70.86, -82.33 93.06 02/05/2016 05:18:09 -70.93, -84.02 92.92 61.89 70
15 02/05/2016 06:08:55 70.25, 84.41 86.36 02/05/2016 06:08:42 70.24, 84.40 86.34 2.03 13
16 02/05/2016 06:58:25 -70.15,-108.10 93.75 02/05/2016 06:59:24 -70.15,-108.15 93.76 1.82 59




NCC Satellite Simultaneous Nadir Overpasses (SNOs) Prediction Service
